• In United Kingdom
  • List of Countries
  • For 7 days
  • Water Temperature
  • Satellite Maps
  • Weather Map
  • Weather Widgets
  • user-avatar
    Login

    Hourly Weather Telavi

    Today, 21 June, Thursday

    Time Temperature Precipitation Wind Pressure Humidity
    00:00 +20°C° 0.1 mm 1 mps 710 mmHg 73%
    01:00 +20°C° 0 mm 1 mps 710 mmHg 74%
    02:00 +20°C° 0 mm 1 mps 710 mmHg 74%
    03:00 +19°C° 0 mm 1 mps 709 mmHg 74%
    04:00 +20°C° 0 mm 1 mps 710 mmHg 72%
    05:00 +20°C° 0 mm 1 mps 710 mmHg 70%
    06:00 +21°C° 0 mm 1 mps 710 mmHg 68%
    07:00 +23°C° 0 mm 1 mps 710 mmHg 62%
    08:00 +25°C° 0 mm 1 mps 710 mmHg 57%
    09:00 +26°C° 0 mm 1 mps 710 mmHg 51%
    10:00 +28°C° 0 mm 1 mps 709 mmHg 47%
    11:00 +29°C° 0 mm 2 mps 709 mmHg 43%
    12:00 +30°C° 0 mm 2 mps 709 mmHg 40%
    13:00 +31°C° 0 mm 2 mps 709 mmHg 38%
    14:00 +31°C° 0 mm 3 mps 709 mmHg 36%
    15:00 +33°C° 0 mm 3 mps 708 mmHg 34%
    16:00 +31°C° 0 mm 3 mps 708 mmHg 36%
    17:00 +31°C° 0 mm 3 mps 708 mmHg 38%
    18:00 +30°C° 0 mm 3 mps 708 mmHg 39%
    19:00 +28°C° 0 mm 2 mps 708 mmHg 45%
    20:00 +26°C° 0 mm 2 mps 708 mmHg 50%
    21:00 +23°C° 0 mm 2 mps 708 mmHg 55%
    22:00 +23°C° 0 mm 2 mps 708 mmHg 57%
    23:00 +21°C° 0 mm 2 mps 708 mmHg 58%

    Tomorrow, 22 June, Friday

    Time Temperature Precipitation Wind Pressure Humidity
    00:00 +20°C° 0 mm 2 mps 708 mmHg 60%
    01:00 +20°C° 0 mm 2 mps 708 mmHg 62%
    02:00 +19°C° 0 mm 2 mps 708 mmHg 63%
    03:00 +18°C° 0 mm 2 mps 708 mmHg 65%
    04:00 +20°C° 0 mm 1 mps 708 mmHg 63%
    05:00 +21°C° 0 mm 1 mps 708 mmHg 61%
    06:00 +21°C° 0 mm 1 mps 708 mmHg 59%
    07:00 +23°C° 0 mm 1 mps 708 mmHg 52%
    08:00 +25°C° 0 mm 1 mps 707 mmHg 46%
    09:00 +27°C° 0 mm 1 mps 707 mmHg 39%
    10:00 +28°C° 0 mm 2 mps 707 mmHg 36%
    11:00 +30°C° 0 mm 3 mps 707 mmHg 33%
    12:00 +31°C° 0 mm 3 mps 707 mmHg 30%
    13:00 +32°C° 0 mm 4 mps 706 mmHg 29%
    14:00 +33°C° 0 mm 4 mps 706 mmHg 28%
    15:00 +33°C° 0 mm 4 mps 706 mmHg 27%
    16:00 +33°C° 0 mm 3 mps 705 mmHg 29%
    17:00 +31°C° 0 mm 3 mps 705 mmHg 30%
    18:00 +30°C° 0 mm 3 mps 705 mmHg 32%
    19:00 +28°C° 0 mm 3 mps 705 mmHg 35%
    20:00 +25°C° 0 mm 3 mps 705 mmHg 37%
    21:00 +23°C° 0 mm 2 mps 706 mmHg 40%
    22:00 +21°C° 0 mm 2 mps 706 mmHg 41%
    23:00 +20°C° 0 mm 2 mps 706 mmHg 41%

    Day after tomorrow, 23 June, Saturday

    Time Temperature Precipitation Wind Pressure Humidity
    00:00 +20°C° 0 mm 2 mps 706 mmHg 41%
    01:00 +19°C° 0 mm 2 mps 706 mmHg 43%
    02:00 +19°C° 0 mm 2 mps 706 mmHg 45%
    03:00 +18°C° 0 mm 2 mps 705 mmHg 47%
    04:00 +19°C° 0 mm 2 mps 705 mmHg 48%
    05:00 +21°C° 0 mm 1 mps 705 mmHg 48%
    06:00 +21°C° 0 mm 1 mps 705 mmHg 49%
    07:00 +23°C° 0 mm 1 mps 706 mmHg 43%
    08:00 +26°C° 0 mm 1 mps 706 mmHg 37%
    09:00 +28°C° 0 mm 1 mps 706 mmHg 31%
    10:00 +29°C° 0 mm 1 mps 706 mmHg 29%
    11:00 +30°C° 0 mm 2 mps 706 mmHg 27%
    12:00 +31°C° 0 mm 3 mps 705 mmHg 25%
    13:00 +31°C° 0 mm 3 mps 705 mmHg 24%
    14:00 +33°C° 0 mm 3 mps 705 mmHg 24%
    15:00 +34°C° 0 mm 3 mps 705 mmHg 23%
    16:00 +32°C° 0 mm 2 mps 705 mmHg 25%
    17:00 +31°C° 0 mm 2 mps 705 mmHg 28%
    18:00 +30°C° 0 mm 2 mps 705 mmHg 30%
    19:00 +28°C° 0 mm 2 mps 706 mmHg 33%
    20:00 +26°C° 0 mm 2 mps 706 mmHg 37%
    21:00 +24°C° 0 mm 2 mps 706 mmHg 40%
    22:00 +23°C° 0 mm 2 mps 706 mmHg 43%
    23:00 +23°C° 0 mm 2 mps 706 mmHg 46%

    24 June, Sunday

    Time Temperature Precipitation Wind Pressure Humidity
    00:00 +21°C° 0 mm 2 mps 706 mmHg 49%
    01:00 +20°C° 0 mm 2 mps 706 mmHg 50%
    02:00 +20°C° 0 mm 2 mps 706 mmHg 52%
    03:00 +19°C° 0 mm 2 mps 706 mmHg 53%
    04:00 +20°C° 0 mm 2 mps 706 mmHg 53%
    05:00 +20°C° 0 mm 2 mps 707 mmHg 52%
    06:00 +21°C° 0 mm 2 mps 707 mmHg 52%
    07:00 +24°C° 0 mm 2 mps 707 mmHg 47%
    08:00 +26°C° 0 mm 2 mps 707 mmHg 42%
    09:00 +29°C° 0 mm 2 mps 708 mmHg 37%
    10:00 +30°C° 0 mm 2 mps 707 mmHg 34%
    11:00 +32°C° 0 mm 1 mps 707 mmHg 30%
    12:00 +34°C° 0 mm 1 mps 707 mmHg 27%
    13:00 +34°C° 0 mm 1 mps 707 mmHg 26%
    14:00 +35°C° 0 mm 2 mps 707 mmHg 26%
    15:00 +36°C° 0 mm 2 mps 707 mmHg 25%
    16:00 +35°C° 0 mm 2 mps 707 mmHg 27%
    17:00 +34°C° 0 mm 2 mps 707 mmHg 30%
    18:00 +32°C° 0 mm 2 mps 707 mmHg 33%
    19:00 +29°C° 0 mm 2 mps 708 mmHg 37%
    20:00 +27°C° 0 mm 2 mps 708 mmHg 42%
    21:00 +25°C° 0 mm 2 mps 708 mmHg 46%
    22:00 +24°C° 0 mm 2 mps 708 mmHg 49%
    23:00 +23°C° 0 mm 2 mps 708 mmHg 51%

    25 June, Monday

    Time Temperature Precipitation Wind Pressure Humidity
    00:00 +23°C° 0 mm 2 mps 709 mmHg 54%
    01:00 +21°C° 0.1 mm 2 mps 708 mmHg 56%
    02:00 +21°C° 0.1 mm 2 mps 708 mmHg 58%
    03:00 +20°C° 0.1 mm 2 mps 708 mmHg 60%
    04:00 +21°C° 0 mm 2 mps 709 mmHg 59%
    05:00 +21°C° 0 mm 2 mps 709 mmHg 58%
    06:00 +23°C° 0 mm 2 mps 709 mmHg 57%
    07:00 +25°C° 0 mm 2 mps 709 mmHg 50%
    08:00 +27°C° 0 mm 1 mps 709 mmHg 42%
    09:00 +30°C° 0 mm 1 mps 709 mmHg 35%
    10:00 +31°C° 0 mm 1 mps 709 mmHg 32%
    11:00 +32°C° 0 mm 1 mps 709 mmHg 29%
    12:00 +35°C° 0 mm 2 mps 709 mmHg 26%
    13:00 +35°C° 0 mm 2 mps 709 mmHg 25%
    14:00 +36°C° 0 mm 2 mps 709 mmHg 24%
    15:00 +36°C° 0 mm 2 mps 709 mmHg 23%
    16:00 +35°C° 0 mm 2 mps 709 mmHg 25%
    17:00 +35°C° 0 mm 2 mps 709 mmHg 26%
    18:00 +34°C° 0 mm 2 mps 709 mmHg 27%
    19:00 +30°C° 0 mm 2 mps 709 mmHg 31%
    20:00 +28°C° 0 mm 2 mps 709 mmHg 34%
    21:00 +25°C° 0 mm 2 mps 709 mmHg 37%
    22:00 +25°C° 0 mm 2 mps 709 mmHg 40%
    23:00 +24°C° 0 mm 2 mps 709 mmHg 42%

    26 June, Tuesday

    Time Temperature Precipitation Wind Pressure Humidity
    00:00 +23°C° 0 mm 2 mps 709 mmHg 44%
    01:00 +21°C° 0 mm 2 mps 709 mmHg 46%
    02:00 +21°C° 0 mm 2 mps 709 mmHg 49%
    03:00 +20°C° 0 mm 2 mps 709 mmHg 51%
    04:00 +21°C° 0 mm 2 mps 709 mmHg 50%
    05:00 +23°C° 0 mm 2 mps 709 mmHg 48%
    06:00 +24°C° 0 mm 2 mps 709 mmHg 47%
    07:00 +26°C° 0 mm 2 mps 709 mmHg 41%
    08:00 +28°C° 0 mm 2 mps 709 mmHg 34%
    09:00 +30°C° 0 mm 2 mps 709 mmHg 27%
    10:00 +31°C° 0 mm 2 mps 708 mmHg 25%
    11:00 +34°C° 0 mm 3 mps 708 mmHg 24%
    12:00 +35°C° 0 mm 3 mps 708 mmHg 23%
    13:00 +35°C° 0 mm 3 mps 707 mmHg 22%
    14:00 +36°C° 0 mm 3 mps 707 mmHg 22%
    15:00 +36°C° 0 mm 4 mps 707 mmHg 22%
    16:00 +36°C° 0 mm 3 mps 707 mmHg 23%
    17:00 +35°C° 0 mm 3 mps 707 mmHg 25%
    18:00 +34°C° 0 mm 3 mps 707 mmHg 27%
    19:00 +31°C° 0 mm 3 mps 707 mmHg 29%
    20:00 +28°C° 0 mm 3 mps 707 mmHg 32%
    21:00 +26°C° 0 mm 2 mps 707 mmHg 34%
    22:00 +25°C° 0 mm 2 mps 707 mmHg 35%
    23:00 +24°C° 0 mm 2 mps 707 mmHg 35%
    Show more